This is the latest recevied weather packets stored in our database for station/object K3RUP-1. If no packets are shown the sender has not sent any weather packets the latest 1 day(s).
| Time | Temp. | Humidity | Pressure | Rain* | Wind** | Luminosity | Snow |
|---|---|---|---|---|---|---|---|
| 1777986322 | 20° C | 60% | 1011.8 hPa | 0 mm | 0 m/s | 50 W/m² | - |
| 1777986020 | 20° C | 59% | 1011.9 hPa | 0 mm | 0 m/s | 52 W/m² | - |
| 1777985716 | 20° C | 58% | 1011.8 hPa | 0 mm | 0 m/s | 46 W/m² | - |
| 1777985413 | 19.44° C | 60% | 1011.7 hPa | 0 mm | 0 m/s | 46 W/m² | - |
| 1777985109 | 19.44° C | 60% | 1011.6 hPa | 0 mm | 0 m/s | 47 W/m² | - |
| 1777984806 | 19.44° C | 61% | 1011.7 hPa | 0 mm | 0 m/s | 43 W/m² | - |
| 1777984503 | 18.89° C | 61% | 1011.7 hPa | 0 mm | 0 m/s | 89 W/m² | - |
| 1777984198 | 18.89° C | 61% | 1011.5 hPa | 0 mm | 0 m/s | 95 W/m² | - |
| 1777983896 | 18.89° C | 62% | 1011.4 hPa | 0 mm | 0 m/s | 61 W/m² | - |
| 1777983593 | 18.89° C | 62% | 1011.5 hPa | 0 mm | 0 m/s | 53 W/m² | - |
| 1777983289 | 18.33° C | 61% | 1011.5 hPa | 0 mm | 0 m/s | 42 W/m² | - |
| 1777982985 | 18.33° C | 61% | 1011.4 hPa | 0 mm | 0 m/s | 48 W/m² | - |
| 1777982682 | 17.78° C | 64% | 1011.6 hPa | 0 mm | 0 m/s | 65 W/m² | - |
| 1777982381 | 17.78° C | 64% | 1011.4 hPa | 0 mm | 0 m/s | 63 W/m² | - |
| 1777982078 | 17.78° C | 64% | 1011.2 hPa | 0 mm | 0 m/s | 37 W/m² | - |
| 1777981776 | 17.22° C | 65% | 1011.4 hPa | 0 mm | 0 m/s | 36 W/m² | - |
| 1777981472 | 17.22° C | 65% | 1011.4 hPa | 0 mm | 0 m/s | 30 W/m² | - |
| 1777981168 | 16.67° C | 66% | 1011.3 hPa | 0 mm | 0 m/s | 32 W/m² | - |
| 1777980865 | 17.22° C | 68% | 1011.2 hPa | 0 mm | 0 m/s | 29 W/m² | - |
| 1777980560 | 17.22° C | 64% | 1011.3 hPa | 0 mm | 0 m/s | 30 W/m² | - |
| 1777980259 | 17.22° C | 65% | 1011.4 hPa | 0 mm | 0 m/s | 34 W/m² | - |
| 1777979954 | 16.67° C | 68% | 1011 hPa | 0 mm | 0 m/s | 36 W/m² | - |
| 1777979649 | 16.67° C | 67% | 1011.1 hPa | 0 mm | 0 m/s | 40 W/m² | - |
| 1777979346 | 16.67° C | 66% | 1011 hPa | 0 mm | 0 m/s | 42 W/m² | - |
| 1777979043 | 16.11° C | 67% | 1010.8 hPa | 0 mm | 0 m/s | 38 W/m² | - |
* Rain latest hour (hover to see other rain measurements)
** Current wind speed in m/s (hover to see current wind gust speed)